When you browse on this site, cookies collect data to enhance your experience and personalize the content and advertising you see.
Visit our Privacy Policy to learn more. By continuing to use the site, you agree to this use of cookies and data.
  • In Lithuania
  • List of Countries
  • For 7 days
  • Water Temperature
  • Weather Map
  • Weather Widgets
  • user-avatar
    Login

    Hourly Weather Nottingham

    Today, 5 June, Friday

    Time Temperature Precipitation Wind Pressure Humidity
    00:00 +7°C° 0.1 mm 4 mps 742 mmHg 92%
    01:00 +7°C° 0 mm 5 mps 741 mmHg 92%
    02:00 +7°C° 0 mm 5 mps 741 mmHg 91%
    03:00 +7°C° 0 mm 5 mps 740 mmHg 91%
    04:00 +7°C° 0.4 mm 5 mps 740 mmHg 91%
    05:00 +7°C° 0.4 mm 5 mps 740 mmHg 91%
    06:00 +7°C° 0.4 mm 5 mps 740 mmHg 92%
    07:00 +7°C° 0.6 mm 5 mps 740 mmHg 89%
    08:00 +8°C° 0.6 mm 4 mps 740 mmHg 87%
    09:00 +8°C° 0.6 mm 4 mps 740 mmHg 84%
    10:00 +10°C° 0.7 mm 4 mps 740 mmHg 79%
    11:00 +9°C° 0.7 mm 5 mps 740 mmHg 74%
    12:00 +10°C° 0.7 mm 6 mps 740 mmHg 70%
    13:00 +11°C° 0.4 mm 7 mps 740 mmHg 66%
    14:00 +11°C° 0.4 mm 8 mps 740 mmHg 62%
    15:00 +12°C° 0.4 mm 9 mps 740 mmHg 58%
    16:00 +11°C° 0.1 mm 8 mps 740 mmHg 58%
    17:00 +11°C° 0.1 mm 8 mps 740 mmHg 59%
    18:00 +10°C° 0.1 mm 8 mps 740 mmHg 60%
    19:00 +9°C° 0 mm 7 mps 740 mmHg 61%
    20:00 +6°C° 0 mm 7 mps 740 mmHg 62%
    21:00 +5°C° 0 mm 6 mps 741 mmHg 63%
    22:00 +5°C° 0 mm 7 mps 740 mmHg 65%
    23:00 +5°C° 0 mm 7 mps 740 mmHg 68%

    Tomorrow, 6 June, Saturday

    Time Temperature Precipitation Wind Pressure Humidity
    00:00 +5°C° 0 mm 8 mps 740 mmHg 71%
    01:00 +5°C° 0.1 mm 9 mps 739 mmHg 74%
    02:00 +5°C° 0.1 mm 9 mps 739 mmHg 77%
    03:00 +5°C° 0.1 mm 10 mps 738 mmHg 80%
    04:00 +5°C° 0.6 mm 10 mps 738 mmHg 83%
    05:00 +5°C° 0.6 mm 9 mps 737 mmHg 87%
    06:00 +6°C° 0.6 mm 9 mps 737 mmHg 91%
    07:00 +7°C° 0.5 mm 9 mps 737 mmHg 85%
    08:00 +9°C° 0.5 mm 8 mps 737 mmHg 80%
    09:00 +11°C° 0.5 mm 8 mps 737 mmHg 75%
    10:00 +11°C° 0.2 mm 8 mps 738 mmHg 74%
    11:00 +11°C° 0.2 mm 8 mps 738 mmHg 72%
    12:00 +12°C° 0.2 mm 9 mps 739 mmHg 71%
    13:00 +12°C° 0.3 mm 8 mps 739 mmHg 70%
    14:00 +13°C° 0.3 mm 8 mps 740 mmHg 69%
    15:00 +13°C° 0.3 mm 8 mps 740 mmHg 68%
    16:00 +14°C° 0.3 mm 6 mps 741 mmHg 71%
    17:00 +13°C° 0.3 mm 5 mps 742 mmHg 74%
    18:00 +13°C° 0.3 mm 4 mps 742 mmHg 77%
    19:00 +12°C° 0.2 mm 4 mps 743 mmHg 80%
    20:00 +11°C° 0.2 mm 3 mps 744 mmHg 84%
    21:00 +10°C° 0.2 mm 3 mps 744 mmHg 87%
    22:00 +9°C° 0 mm 3 mps 745 mmHg 89%
    23:00 +9°C° 0 mm 3 mps 745 mmHg 91%

    Day after tomorrow, 7 June, Sunday

    Time Temperature Precipitation Wind Pressure Humidity
    00:00 +8°C° 0 mm 3 mps 745 mmHg 93%
    01:00 +8°C° 0 mm 2 mps 746 mmHg 93%
    02:00 +8°C° 0 mm 2 mps 746 mmHg 93%
    03:00 +9°C° 0 mm 1 mps 746 mmHg 93%
    04:00 +10°C° 0 mm 1 mps 747 mmHg 92%
    05:00 +11°C° 0 mm 1 mps 747 mmHg 91%
    06:00 +12°C° 0 mm 1 mps 747 mmHg 90%
    07:00 +13°C° 0 mm 2 mps 748 mmHg 85%
    08:00 +14°C° 0 mm 2 mps 748 mmHg 79%
    09:00 +15°C° 0 mm 2 mps 748 mmHg 74%
    10:00 +16°C° 0.5 mm 3 mps 749 mmHg 74%
    11:00 +16°C° 0.5 mm 3 mps 749 mmHg 75%
    12:00 +15°C° 0.5 mm 4 mps 749 mmHg 75%
    13:00 +15°C° 0.5 mm 5 mps 750 mmHg 76%
    14:00 +14°C° 0.5 mm 5 mps 750 mmHg 77%
    15:00 +14°C° 0.5 mm 6 mps 750 mmHg 78%
    16:00 +13°C° 0.1 mm 6 mps 750 mmHg 80%
    17:00 +11°C° 0.1 mm 6 mps 751 mmHg 83%
    18:00 +10°C° 0.1 mm 6 mps 752 mmHg 85%
    19:00 +10°C° 0 mm 6 mps 752 mmHg 85%
    20:00 +9°C° 0 mm 5 mps 753 mmHg 86%
    21:00 +10°C° 0 mm 4 mps 754 mmHg 86%
    22:00 +8°C° 0 mm 4 mps 754 mmHg 86%
    23:00 +8°C° 0 mm 4 mps 754 mmHg 87%

    8 June, Monday

    Time Temperature Precipitation Wind Pressure Humidity
    00:00 +8°C° 0 mm 4 mps 755 mmHg 87%
    01:00 +8°C° 0 mm 3 mps 755 mmHg 88%
    02:00 +8°C° 0 mm 3 mps 755 mmHg 89%
    03:00 +8°C° 0 mm 3 mps 755 mmHg 89%
    04:00 +7°C° 0 mm 4 mps 756 mmHg 87%
    05:00 +7°C° 0 mm 4 mps 756 mmHg 84%
    06:00 +8°C° 0 mm 5 mps 756 mmHg 81%
    07:00 +10°C° 0 mm 4 mps 757 mmHg 77%
    08:00 +10°C° 0 mm 4 mps 757 mmHg 74%
    09:00 +11°C° 0 mm 4 mps 757 mmHg 70%
    10:00 +12°C° 0 mm 4 mps 758 mmHg 67%
    11:00 +13°C° 0 mm 4 mps 758 mmHg 64%
    12:00 +13°C° 0 mm 4 mps 758 mmHg 61%
    13:00 +13°C° 0 mm 4 mps 758 mmHg 61%
    14:00 +13°C° 0 mm 4 mps 758 mmHg 62%
    15:00 +13°C° 0 mm 4 mps 758 mmHg 62%
    16:00 +13°C° 0 mm 4 mps 758 mmHg 64%
    17:00 +12°C° 0 mm 4 mps 758 mmHg 67%
    18:00 +12°C° 0 mm 4 mps 759 mmHg 70%
    19:00 +10°C° 0 mm 4 mps 759 mmHg 74%
    20:00 +9°C° 0 mm 3 mps 760 mmHg 77%
    21:00 +8°C° 0 mm 3 mps 760 mmHg 81%
    22:00 +7°C° 0 mm 3 mps 760 mmHg 82%
    23:00 +7°C° 0 mm 3 mps 760 mmHg 83%

    9 June, Tuesday

    Time Temperature Precipitation Wind Pressure Humidity
    00:00 +6°C° 0 mm 2 mps 761 mmHg 84%
    01:00 +7°C° 0 mm 2 mps 760 mmHg 84%
    02:00 +7°C° 0 mm 3 mps 760 mmHg 83%
    03:00 +7°C° 0 mm 3 mps 760 mmHg 83%
    04:00 +7°C° 0 mm 3 mps 761 mmHg 81%
    05:00 +8°C° 0 mm 3 mps 761 mmHg 79%
    06:00 +7°C° 0 mm 4 mps 761 mmHg 77%
    07:00 +8°C° 0 mm 4 mps 761 mmHg 74%
    08:00 +10°C° 0 mm 4 mps 762 mmHg 72%
    09:00 +11°C° 0 mm 4 mps 762 mmHg 69%
    10:00 +12°C° 0.1 mm 4 mps 762 mmHg 68%
    11:00 +13°C° 0.1 mm 4 mps 762 mmHg 67%
    12:00 +13°C° 0.1 mm 4 mps 762 mmHg 65%
    13:00 +13°C° 0 mm 4 mps 762 mmHg 66%
    14:00 +13°C° 0 mm 4 mps 762 mmHg 66%
    15:00 +13°C° 0 mm 4 mps 762 mmHg 66%
    16:00 +13°C° 0 mm 4 mps 762 mmHg 68%
    17:00 +13°C° 0 mm 4 mps 762 mmHg 70%
    18:00 +12°C° 0 mm 3 mps 763 mmHg 73%
    19:00 +11°C° 0 mm 3 mps 763 mmHg 78%
    20:00 +9°C° 0 mm 3 mps 763 mmHg 82%
    21:00 +8°C° 0 mm 3 mps 764 mmHg 87%
    22:00 +7°C° 0 mm 3 mps 764 mmHg 88%
    23:00 +6°C° 0 mm 2 mps 764 mmHg 90%

    10 June, Wednesday

    Time Temperature Precipitation Wind Pressure Humidity
    00:00 +6°C° 0 mm 2 mps 764 mmHg 91%
    01:00 +5°C° 0 mm 2 mps 764 mmHg 91%
    02:00 +5°C° 0 mm 2 mps 764 mmHg 90%
    03:00 +5°C° 0 mm 2 mps 764 mmHg 90%
    04:00 +5°C° 0 mm 3 mps 764 mmHg 87%
    05:00 +7°C° 0 mm 3 mps 765 mmHg 83%
    06:00 +8°C° 0 mm 3 mps 765 mmHg 80%
    07:00 +9°C° 0 mm 3 mps 765 mmHg 76%
    08:00 +10°C° 0 mm 3 mps 765 mmHg 73%
    09:00 +11°C° 0 mm 3 mps 765 mmHg 69%
    10:00 +12°C° 0 mm 4 mps 765 mmHg 69%
    11:00 +12°C° 0 mm 4 mps 765 mmHg 69%
    12:00 +13°C° 0 mm 4 mps 765 mmHg 69%
    13:00 +13°C° 0 mm 4 mps 764 mmHg 69%
    14:00 +13°C° 0 mm 4 mps 764 mmHg 69%
    15:00 +13°C° 0 mm 4 mps 764 mmHg 70%
    16:00 +13°C° 0 mm 4 mps 764 mmHg 72%
    17:00 +13°C° 0 mm 3 mps 764 mmHg 73%
    18:00 +13°C° 0 mm 3 mps 764 mmHg 75%
    19:00 +12°C° 0 mm 3 mps 764 mmHg 79%
    20:00 +11°C° 0 mm 3 mps 764 mmHg 83%
    21:00 +10°C° 0 mm 3 mps 765 mmHg 86%
    22:00 +10°C° 0 mm 3 mps 764 mmHg 86%
    23:00 +9°C° 0 mm 3 mps 764 mmHg 87%
    Show more